Location: Valdosta
(30.8330°N, 83.2790°W)
Time: 15:25:40
(UTC-04:00)

Daily predictions for brighter satellites

Satellite Brightness Start Highest point End
(mag) Time Altitude Azimuth Time Altitude Azimuth Time Altitude Azimuth
Cosmos 2082 Rocket 3.5 20:42:17 10° SW 20:47:41 47° WNW 20:53:09 10° N
NOSS 3-2 (A) 3.3 20:45:54 10° SSW 20:51:32 65° ESE 20:57:40 10° NE
Meteor 1-5 Rocket 4.4 20:45:51 10° N 20:51:46 81° E 20:57:44 10° S
CZ-2D R/B 3.3 20:48:56 10° SSE 20:52:45 64° ENE 20:56:36 10° N
Delta 168 3.4 20:52:35 10° WSW 20:56:08 33° S 20:59:03 10° ESE
NOSS 3-2 (C) 3.6 20:51:29 10° S 20:56:57 48° ESE 21:02:51 10° NE
USA 234 3.3 20:53:09 10° NE 20:59:42 70° SE 21:06:13 10° SSW
Cosmos 44 Rocket 3.5 20:55:39 10° NNW 21:00:50 70° ENE 21:06:01 10° SE
Resurs 01 Rocket 2.6 20:58:31 10° SE 21:02:18 29° ENE 21:06:06 10° NNE
Cosmos 1184 Rocket 3.1 21:00:06 10° SSW 21:03:26 72° W 21:06:47 10° N
SL-16 R/B 4.2 21:01:19 10° NNE 21:03:39 12° ENE 21:05:57 10° E
Cosmos 2084 4.1 20:59:58 10° S 21:03:59 33° ESE 21:07:46 10° NE
HJ-1C 4.3 21:04:22 10° S 21:07:40 51° W 21:11:01 10° NNW
Cosmos 2278 4.2 21:03:51 10° NNW 21:09:28 64° WSW 21:15:04 10° S
GPS 2-05 Rocket1 4.4 21:11:51 10° S 21:14:04 17° SSE 21:15:09 15° SE
Cosmos 1536 3.6 21:10:32 10° NNW 21:14:30 54° W 21:18:28 10° S
Cosmos 2208 Rocket 4.0 21:12:20 10° S 21:17:27 62° ESE 21:22:33 10° NNE
Cosmos 2151 Rocket 3.8 21:14:21 10° N 21:18:47 76° W 21:23:11 10° S
Cosmos 304 Rocket 3.8 21:14:40 10° SSW 21:19:28 89° W 21:24:18 10° NNE
Atlas Centaur 2 1.0 21:15:38 10° W 21:19:40 84° S 21:22:39 14° E
Cosmos 1300 Rocket 3.5 21:16:11 10° N 21:20:33 75° E 21:24:50 10° S
CENTAUR R/B 3.1 21:15:51 10° SSE 21:20:38 29° ESE 21:25:53 10° NE
YAOGAN 6 2.6 21:18:18 10° SSE 21:22:00 85° ENE 21:25:42 10° N
Cosmos 2360 4.3 21:17:05 10° NNW 21:22:45 62° ENE 21:27:44 13° SSE
Envisat 3.7 21:19:22 10° S 21:24:19 54° W 21:29:18 10° NNW
Cosmos 1777 Rocket 4.5 21:19:55 10° NNW 21:25:02 61° WSW 21:30:07 10° S
SJ-6B 3.7 21:21:28 10° S 21:25:04 45° W 21:28:38 10° NNW
COSMOS 2487 4.4 21:22:42 10° SW 21:25:53 33° WNW 21:29:06 10° N
ISS -0.5 21:25:49 10° WNW 21:27:38 14° NW 21:29:26 10° N
Cosmos 1975 3.8 21:24:13 10° NNE 21:27:44 28° E 21:29:38 20° ESE
Timation 2 Rocket 3.8 21:24:20 10° S 21:30:15 69° ESE 21:36:13 10° NNE
ATLAS CENTAUR R/B 1.7 21:26:57 10° NNW 21:31:36 75° ENE 21:35:09 18° SE
ATLAS 3B R/B 4.0 21:26:24 10° SW 21:33:19 46° WNW 21:40:00 10° NNE
Cosmos 1697 Rocket 3.4 21:29:52 10° NNW 21:35:21 52° WSW 21:40:48 10° S
Cosmos 1242 Rocket 4.0 21:34:02 10° NNE 21:36:53 21° ENE 21:37:29 20° E
Cosmos 1500 3.7 21:35:28 10° NNW 21:39:16 59° W 21:43:04 10° S
SL-24 R/B 4.4 21:35:49 10° S 21:40:37 88° W 21:45:45 10° N
BREEZE-M DEB (TANK) 4.2 21:39:09 10° N 21:41:14 22° NE 21:42:59 16° E
Tiangong 2 4.0 21:42:42 10° WNW 21:44:48 16° NNW 21:46:54 10° NNE
Cosmos 2360 Rocket 4.3 21:44:02 10° NE 21:45:23 11° NE 21:46:44 10° ENE
USA 186 3.4 21:43:41 10° SSW 21:46:30 33° W 21:49:31 10° NNW
Cosmos 1980 Rocket 2.3 21:42:59 10° NNW 21:48:39 76° WSW 21:53:06 17° SSE
Resurs 1-3 3.8 21:45:24 13° S 21:49:16 69° WSW 21:53:39 10° NNW
Cosmos 292 Rocket 4.4 21:48:32 27° SE 21:50:04 33° E 21:54:20 10° NE
deb Kosmos-1763 4.2 21:46:47 10° SSW 21:50:28 75° WNW 21:54:10 10° NNE
ERS-2 2.8 21:49:00 14° S 21:51:57 52° W 21:55:33 10° NNW
Cosmos 1666 2.9 21:50:15 10° N 21:54:03 52° E 21:55:11 37° SE
BREEZE-M DEB (TANK) 2.4 21:58:50 10° NNW 22:00:45 31° NNE 22:00:45 31° NNE
Spot 2 Rocket 3.6 21:59:35 20° S 22:03:06 77° WSW 22:08:08 10° NNW
Tsikada Rocket 4.2 21:56:44 10° N 22:03:08 76° W 22:08:51 13° S
Cosmos 1743 2.6 22:00:01 10° N 22:03:49 66° E 22:04:39 49° SE
Iridium 2 3.6 22:05:38 47° SSE 22:06:32 68° E 22:10:21 10° N
Cosmos 2346 Rocket 4.4 22:01:18 10° N 22:07:31 86° W 22:11:54 20° S
MetOp-A 4.5 22:05:37 34° ESE 22:07:31 48° ENE 22:12:39 10° N
Cosmos 1455 Rocket 4.1 22:06:25 10° NNE 22:10:07 29° ENE 22:10:07 29° ENE
Cosmos 540 Rocket 4.1 22:11:04 34° E 22:11:04 34° E 22:15:35 10° NE
Chunghua 1 4.4 22:08:00 10° WSW 22:11:42 67° SSE 22:11:45 67° SSE
Meteor 2-4 Rocket 3.5 22:10:23 28° S 22:13:13 67° E 22:18:41 10° NNE
Cosmos 1833 4.2 22:10:33 22° S 22:14:09 58° ESE 22:19:44 10° NNE
FUSE 4.3 22:09:14 10° WSW 22:14:17 45° S 22:15:09 41° SSE
Cosmos 1975 Rocket 3.4 22:11:24 16° SSW 22:14:47 61° W 22:19:04 10° N
Cosmos 1937 Rocket 3.8 22:09:57 10° N 22:14:52 46° ENE 22:15:56 40° ESE
Cosmos 1763 Rocket 3.7 22:10:35 10° SSW 22:15:53 74° WNW 22:21:11 10° NNE
GPS 2-04 Rocket1 2.9 22:15:52 10° WNW 22:20:03 59° SSW 22:20:22 57° S
Cosmos 841 Rocket 3.4 22:16:58 21° S 22:20:32 82° ESE 22:25:49 10° NNE
Okean 1 Rocket 4.5 22:17:29 10° NNW 22:21:26 34° W 22:24:22 16° SSW
Delta 7925 Rocket 3.4 22:18:01 10° WSW 22:22:29 48° S 22:22:35 47° S
USA 32 4.2 22:17:36 10° N 22:22:42 52° E 22:23:30 47° ESE
Meteor 2-20 4.4 22:20:12 10° N 22:26:18 66° E 22:28:13 44° SE
SL-08 RB Rocket 3.7 22:27:06 57° E 22:27:25 59° ENE 22:31:53 10° N
Helios 1A 4.4 22:32:26 26° NE 22:32:26 26° NE 22:35:10 10° NNE
Cosmos 1340 Rocket 2.7 22:31:55 89° SSW 22:31:56 90° NNW 22:36:01 10° N
ARGOS 3.1 22:34:10 49° S 22:35:43 86° WSW 22:41:08 10° NNW
Cosmos 1544 Rocket 3.6 22:33:05 10° N 22:37:13 64° ENE 22:37:13 64° ENE
Cosmos 858 Rocket 4.4 22:32:24 10° NNW 22:37:38 88° WSW 22:38:33 62° S
Resurs 01 Rocket 4.0 22:35:44 10° SW 22:38:45 18° W 22:41:46 10° NW
SPOT 5 3.8 22:40:13 31° NE 22:40:13 31° NE 22:43:28 10° N
Cosmos 2322 Rocket 2.0 22:33:57 10° NNW 22:39:35 86° ENE 22:40:38 61° SSE
Cosmos 1072 Rocket 4.5 22:38:09 33° S 22:41:17 86° W 22:47:37 10° N
SPOT 1/Viking Rocket 4.1 22:47:58 43° ENE 22:47:58 43° ENE 22:52:36 10° N
ERS-1 Rocket 2.8 22:47:49 77° ESE 22:48:01 79° ENE 22:53:03 10° N
Cosmos 1536 Rocket 3.7 22:48:40 67° NNE 22:48:40 67° NNE 22:52:32 10° N
SL-16 R/B 2.2 22:42:37 10° NNW 22:48:17 74° WSW 22:49:18 59° S
Terra 3.6 22:50:46 20° NE 22:50:46 20° NE 22:53:20 10° NNE
H-2A R/B 1.9 22:50:59 69° SW 22:51:25 75° W 22:56:24 10° NNW
SJ 16-02 3.1 22:47:45 10° NNE 22:50:11 22° NE 22:50:11 22° NE
Cosmos 1898 Rocket 4.4 22:52:23 10° NNW 22:57:22 43° W 22:58:30 37° SW
Nadezhda 4 Rocket 4.4 22:53:44 10° N 22:59:41 47° ENE 22:59:41 47° ENE
Meteor 1-15 Rocket 4.3 22:56:51 10° N 23:02:11 61° ENE 23:02:11 61° ENE
Delta 142 4.5 23:01:16 10° W 23:06:23 52° WSW 23:06:23 52° WSW
Atlas Centaur 2 3.7 23:04:41 10° W 23:05:16 14° W 23:05:16 14° W
DMSP B5D2-2 4.5 23:04:54 10° N 23:10:06 61° WNW 23:10:55 54° WSW
Helios 1B rocket 3.8 23:06:17 10° N 23:08:41 34° N 23:08:41 34° N
CENTAUR R/B 3.9 23:05:39 10° WSW 23:10:57 35° NW 23:16:57 10° NNE
Cosmos 2034 Rocket 4.4 23:22:29 48° WSW 23:23:42 57° W 23:29:44 10° N
Cosmos 2360 Rocket 2.4 23:24:21 10° NNW 23:29:12 66° NNW 23:29:12 66° NNW
Cosmos 2219 Rocket 3.7 23:30:03 10° N 23:33:35 25° NE 23:33:35 25° NE
CZ-2C R/B 3.9 23:30:14 10° NNE 23:33:28 33° NE 23:33:28 33° NE
Lacrosse 5 rocket 3.8 23:46:39 10° NNW 23:48:08 20° NNW 23:48:08 20° NNW
Cosmos 1634 Rocket 4.3 23:52:52 64° N 23:52:52 64° N 23:58:07 10° N
Cosmos 2333 Rocket 3.6 23:47:56 10° N 23:51:37 30° NE 23:51:37 30° NE
